Other Public Products
Issued by NWS Grand Forks, ND

Home | Current Version | Previous Version | Graphics & Text | Print | Product List | Glossary On
Versions: 1 2 3 4 5 6 7 8 9 10 11 12 13 14 15 16 17 18 19 20 21 22 23 24 25 26 27 28 29 30 31 32 33 34 35 36 37 38 39 40 41 42 43 44 45 46 47 48 49 50
000
FPUS83 KFGF 060931
OPUFGF
PRAIRIE TO PINES WEATHER ROUNDUP
NATIONAL WEATHER SERVICE EASTERN NORTH DAKOTA/GRAND FORKS ND
400 AM CDT FRI MAY 06 2016

 **SATELLITE DATA USED TO AUGMENT SKY COVER AT AUTOMATED STATIONS**
 *****  WEATHER ACROSS EASTERN NORTH DAKOTA  *****

CITY           SKY/WX    TMP DP  RH WIND       PRES   REMARKS
GRAND FORKS    CLEAR     64  48  56 SW12      29.68F
GRAND FORKS AF CLEAR     64  48  55 W10       29.69F
GRAND CITY NWS NOT AVBL
BUXTON           N/A     66  49  53 SW14        N/A
DEVILS LAKE    PTCLDY    62  45  53 SW9       29.72S
FARGO          MOCLDY    64  42  44 S9        29.75S
WAHPETON ARPT  SUNNY     59  37  44 SE7       29.78F
$$

 *****  WEATHER ACROSS CENTRAL AND WESTERN NORTH DAKOTA  *****

CITY           SKY/WX    TMP DP  RH WIND       PRES   REMARKS
JAMESTOWN      CLEAR     53  46  77 S8        29.75F
BISMARCK       CLEAR     49  45  86 CALM      29.78S
MINOT          CLOUDY    70  39  32 W10       29.74S
MINOT AFB      CLOUDY    60  42  50 W10       29.74R
GARRISON         N/A     56  43  61 CALM      29.76F
WILLISTON      CLOUDY    63  43  48 N17       29.85R
DICKINSON      MOCLDY    54  44  69 W8        29.79F
HETTINGER      PTCLDY    46  42  86 CALM      29.84F
$$

 *****  OTHER OBSERVATIONS NORTHEAST NORTH DAKOTA  *****

CITY           SKY/WX    TMP DP  RH WIND       PRES   REMARKS
WALHALLA       FAIR      72  41  33 SW10G16   29.64F
LANGDON        FAIR      54  43  66 S13       29.70F
CAVALIER       FAIR      70  41  35 W10       29.65F
GRAFTON        FAIR      59  45  58 SW9       29.67F
CANDO          FAIR      55  41  58 SW9       29.72F
FORT TOTTEN      N/A     65  41  41 S7        29.95S
ROLLA          FAIR      57  39  51 W3        29.72S
RUGBY          FAIR      59  45  58 SW6       29.72S
 ***** THE ABOVE OBSERVATIONS ARE NON NWS ARE NOT QUALITY
        CONTROLLED AND MAY MIS-REPORT RAIN FOR SNOW...
$$

 *****  OTHER OBSERVATIONS SOUTHEAST NORTH DAKOTA *****

CITY           SKY/WX    TMP DP  RH WIND       PRES   REMARKS
COOPERSTOWN    NOT AVBL
VALLEY CITY    FAIR      55  48  76 SW10      29.78S
OAKES            N/A    N/A N/A N/A MISG        N/A
GWINNER        FAIR      61  45  55 SW9       29.79R
SHEYENNE NWR     N/A     64  43  46 SW6       29.95S
BUFFALO          N/A     62  40  45 SW12        N/A
WYNDMERE         N/A     70  45  40 SW12        N/A
 ***** THE ABOVE OBSERVATIONS ARE NON NWS ARE NOT QUALITY
       CONTROLLED AND MAY MIS-REPORT RAIN FOR SNOW...
$$

  *****  WEATHER ACROSS NORTHERN MINNESOTA  *****

CITY           SKY/WX    TMP DP  RH WIND       PRES   REMARKS
FLAG ISLAND    CLOUDY    63  41  45 S3        29.64S
WARROAD        CLOUDY    64  46  52 SW13      29.67F
ROSEAU         CLOUDY    63  45  51 S9        29.67F
HALLOCK        CLOUDY    59  37  44 S7        29.66S
THF RVR FALLS  CLEAR     63  39  42 SW13      29.73F
HALSTAD        NOT AVBL
FOSSTON        CLEAR     54  41  62 S8        29.76F
BAUDETTE       CLEAR     68  40  35 SW12      29.68S
WASKISH        PTCLDY    66  46  48 SW15      29.73S
CROOKSTON      CLEAR     61  43  51 S7        29.72F
$$
  *****  WEATHER ACROSS CENTRAL AND WEST MINNESOTA  *****

CITY           SKY/WX    TMP DP  RH WIND       PRES   REMARKS
BEMIDJI        CLEAR     64  42  44 SW6       29.77S
PARK RAPIDS    PTCLDY    61  42  49 SW8       29.80F
WADENA         CLEAR     57  43  58 SW6       29.81F
DETROIT LAKES  PTCLDY    64  43  45 SW12      29.80F
MOORHEAD       PTCLDY    57  43  58 SE9       29.77S
FERGUS FALLS   PTCLDY    59  45  58 S9        29.78S
ELBOW LAKE     FAIR      56  44  63 S8        29.82S
MORRIS MN      CLOUDY    54  43  66 SE7       29.82F
STAPLES        CLEAR     63  41  45 SW6       29.82S
WHEATON        PTCLDY    61  45  55 S7        29.81F
$$
  *****  WEATHER ELSEWHERE ACROSS MINNESOTA  *****

CITY           SKY/WX    TMP DP  RH WIND       PRES   REMARKS
DULUTH         CLEAR     67  41  38 W15       29.78S
INTRNTL FALLS  LGT RAIN  65  40  39 W7        29.70S
ELY            MOCLDY    59  39  47 SW5       29.74S
CLOQUET        CLEAR     66  37  34 W15       29.79S
BRAINERD       CLEAR     54  43  66 CALM      29.82F
HIBBING        PTCLDY    65  40  39 W9        29.76F
ALEXANDRIA     CLEAR     61  43  51 S13       29.85F
SAINT CLOUD    CLEAR     62  42  47 SW7       29.84F
MINNEAPOLIS    CLEAR     63  41  44 W9        29.87R
$$

  *****  WEATHER ACROSS SOUTH DAKOTA  *****

CITY           SKY/WX    TMP DP  RH WIND       PRES   REMARKS
SIOUX FALLS    CLEAR     59  43  55 S10       29.91F
BROOKINGS      CLEAR     54  44  69 S6        29.89F
WATERTOWN      CLOUDY    56  44  64 S9        29.86F
HURON          PTCLDY    61  48  62 S12       29.82F
SISSETON         N/A     70  43  37 SW20G29   29.78F
ABERDEEN       CLEAR     61  46  57 S8        29.79S
MITCHELL       PTCLDY    61  49  64 S9        29.87F
PIERRE         MOCLDY    60  49  66 W12       29.80S
MOBRIDGE       PTCLDY    56  49  77 SE5       29.77S
RAPID CITY     PTCLDY    54  39  57 CALM      29.86F
$$

  *****  SOME WEATHER IN NEARBY STATES *****

CITY           SKY/WX    TMP DP  RH WIND       PRES   REMARKS
GLASGOW MT     PTCLDY    57  40  52 N23G32    29.94S
GREAT FALLS MT CLOUDY    49  41  74 N10       30.17R
CHEYENNE WY    MOCLDY    52  39  61 S6        30.03F
SCOTTSBLUFF NE MOCLDY    65  42  43 VRB3      29.94F
OMAHA NE       CLEAR     52  44  74 SE9       29.99F
DES MOINES IA  CLEAR     53  41  63 S3        29.99S
DAVENPORT IA   CLEAR     50  39  66 SW5       29.99F
CHICAGO IL     CLOUDY    45  40  82 CALM      29.96S
EAU CLAIRE WI  CLEAR     46  40  79 CALM      29.84F
LA CROSSE WI   CLEAR     55  42  61 SE7       29.89F
$$

  *****  SOME NATIONAL WEATHER *****

CITY           SKY/WX    TMP DP  RH WIND       PRES   REMARKS
LA GUARDIA NY  LGT RAIN  50  48  93 NE12      29.68R
RALEIGH NC     LGT RAIN  50  48  93 W3        29.67S
ATLANTA GA     PTCLDY    47  40  76 NW12      29.87R
NEW ORLEANS LA CLEAR     67  42  40 NE12      29.98R
OKLAHOMA CITY  PTCLDY    52  46  80 S3        30.05S
ALBUQUERQUE NM MOCLDY    65  25  22 E9        29.99F
SALT LAKE CITY CLOUDY    68  38  33 S8        29.79S
LOS ANGELES CA MOCLDY    58  52  80 SE3       29.86F
BOISE ID       CLOUDY    58  48  69 VRB3      29.82R
SEATTLE WA     CLEAR     58  43  57 NE7       30.07F
$$

*** WEATHER ACROSS MANITOBA...SASKATCHEWAN AND ONTARIO ***
                ***ONTARIO***

CITY           SKY/WX    TMP DP  RH WIND       PRES   REMARKS
GERALDTON      PTCLDY    36  32  87 SE3       29.76F
THUNDER BAY    PTCLDY    39  36  87 E8        29.74F
SIOUX LOOKOUT  MOCLDY    59  46  63 S7        29.61F
TORONTO        PTCLDY    48  37  66 N12       29.84R
BIG TROUT LK   CLOUDY    30  19  64 E12G20    29.79F WCI  21
PICKLE LAKE    NOT AVBL
DRYDEN         MOCLDY    64  39  39 SW10      29.63S
KENORA         PTCLDY    63  41  45 SW6       29.63F
$$
                *** MANITOBA***

CITY           SKY/WX    TMP DP  RH WIND       PRES   REMARKS
BRANDON        PTCLDY    59  41  51 NW16      29.69R
DAUPHIN        CLEAR     55  41  58 N13G24    29.79R
ISLAND LAKE    MOCLDY    39  27  60 N8        29.74R
PILOT MOUND      N/A     57  39  51 SW6         N/A
THE PAS        PTCLDY    45  41  87 NW9       29.89R
THOMPSON       FRZ RAIN  30  27  86 NE5       29.85
WINNIPEG       PTCLDY    68  41  37 W10       29.59F
LYNN LAKE      CLEAR     36  34  93 W9        29.83F
CHURCHILL      LGT SNOW  25  23  93 S3        29.98S
GILLAM         CLOUDY    25  21  86 NE6       29.90S WCI  18
$$
                ***SASKATCHEWAN***

CITY           SKY/WX    TMP DP  RH WIND       PRES   REMARKS
ESTEVAN        MOCLDY    57  45  62 NW15G21   29.83R
KINDERSLEY     PTCLDY    43  37  81 NW9       30.12R
LLOYDMINSTER   CLEAR     43  37  81 W13       30.10R
PRINCE ALBERT  MOCLDY    45  39  81 W5        30.02R
REGINA         CLEAR     50  39  66 NW16G22   29.97R
YORKTON        CLEAR     54  43  66 NW17G28   29.87R   C1F1C2F2C3F3C4F4C5F5C6F6C7F7C8F8C9F9CaFaCbFbCcFcCdFdCe!



USA.gov is the U.S. government's official web portal to all federal, state and local government web resources and services.